AAL134 KLAX-EGLL

Flight info

Callsign AAL134
Flight time N/A
Altitude 33000
Route ORCKA5 LAS DCT BCE DCT MBW DCT RAP DCT DPR DCT KP09A DCT KP21C DCT YRL DCT FERNO DCT KEMSA/N0483F350 DCT TUNNI DCT JELCO DCT GRIBS/M084F350 DCT KETLA DCT 63N050W 6230N04000W 61N030W 59N020W DCT AGORI/N0483F350 DCT OSBOX DCT MIMKU DCT KELLY L10 WAL UY53 NUGRA
Aircraft B77W/H-SDE1E2E3FGHIJ2J3J4J5M1RWXY/LB1D1

Departure

Time 2026-04-25 03:39
Airport Los Angeles International Airport (KLAX)

Arrival

Time N/A
Airport London Heathrow Airport (EGLL)
Time Latitude Longitude Altitude Speed Heading
2026-04-25 01:41 33.94505 -118.41468 99 ft 0 kts 263°
2026-04-25 03:20 33.94505 -118.41464 97 ft 3 kts 263°
2026-04-25 03:20 33.94509 -118.41432 97 ft 4 kts 263°
2026-04-25 03:20 33.94512 -118.41400 95 ft 4 kts 263°
2026-04-25 03:21 33.94515 -118.41375 95 ft 4 kts 245°
2026-04-25 03:21 33.94530 -118.41360 97 ft 4 kts 174°
2026-04-25 03:21 33.94555 -118.41363 96 ft 4 kts 173°
2026-04-25 03:21 33.94567 -118.41365 96 ft 0 kts 173°
2026-04-25 03:30 33.94559 -118.41364 99 ft 5 kts 173°
2026-04-25 03:30 33.94484 -118.41353 100 ft 16 kts 173°
2026-04-25 03:30 33.94372 -118.41336 98 ft 16 kts 173°
2026-04-25 03:30 33.94259 -118.41319 99 ft 16 kts 173°
2026-04-25 03:31 33.94146 -118.41303 99 ft 16 kts 173°
2026-04-25 03:31 33.94041 -118.41287 99 ft 15 kts 173°
2026-04-25 03:31 33.93940 -118.41273 101 ft 15 kts 173°
2026-04-25 03:31 33.93840 -118.41257 100 ft 15 kts 173°
2026-04-25 03:32 33.93768 -118.41220 100 ft 10 kts 117°
2026-04-25 03:32 33.93763 -118.41133 100 ft 11 kts 82°
2026-04-25 03:32 33.93773 -118.41045 98 ft 11 kts 82°
2026-04-25 03:32 33.93784 -118.40958 99 ft 11 kts 81°
2026-04-25 03:33 33.93790 -118.40870 98 ft 11 kts 86°
2026-04-25 03:33 33.93800 -118.40765 101 ft 16 kts 82°
2026-04-25 03:33 33.93817 -118.40602 99 ft 24 kts 83°
2026-04-25 03:33 33.93840 -118.40383 102 ft 27 kts 83°
2026-04-25 03:34 33.93863 -118.40161 103 ft 27 kts 83°
2026-04-25 03:34 33.93885 -118.39939 102 ft 27 kts 83°
2026-04-25 03:34 33.93907 -118.39717 100 ft 27 kts 83°
2026-04-25 03:34 33.93931 -118.39495 99 ft 27 kts 83°
2026-04-25 03:35 33.93954 -118.39273 101 ft 27 kts 83°
2026-04-25 03:35 33.93976 -118.39054 99 ft 27 kts 83°
2026-04-25 03:35 33.93998 -118.38833 102 ft 27 kts 83°
2026-04-25 03:35 33.94021 -118.38611 100 ft 27 kts 83°
2026-04-25 03:36 33.94043 -118.38397 102 ft 25 kts 83°
2026-04-25 03:36 33.94064 -118.38190 99 ft 25 kts 83°
2026-04-25 03:36 33.94074 -118.38091 98 ft 2 kts 83°
2026-04-25 03:36 33.94069 -118.38039 99 ft 10 kts 116°
2026-04-25 03:37 33.94001 -118.38010 99 ft 12 kts 207°
2026-04-25 03:37 33.93977 -118.38101 99 ft 12 kts 267°
2026-04-25 03:37 33.93968 -118.38199 103 ft 12 kts 263°
2026-04-25 03:37 33.93951 -118.38347 105 ft 26 kts 263°
2026-04-25 03:38 33.93918 -118.38664 102 ft 57 kts 263°
2026-04-25 03:38 33.93839 -118.39436 103 ft 127 kts 263°
2026-04-25 03:38 33.93704 -118.40735 102 ft 182 kts 263°
2026-04-25 03:38 33.93560 -118.42333 416 ft 194 kts 262°
2026-04-25 03:39 33.93378 -118.44014 807 ft 211 kts 261°
2026-04-25 03:39 33.93168 -118.45813 1402 ft 219 kts 262°
2026-04-25 03:39 33.92798 -118.47664 1780 ft 234 kts 250°
2026-04-25 03:39 33.92200 -118.49539 2256 ft 245 kts 249°
2026-04-25 03:40 33.91522 -118.51451 2831 ft 253 kts 243°
2026-04-25 03:40 33.90481 -118.53155 3364 ft 260 kts 219°
2026-04-25 03:40 33.88843 -118.54112 3985 ft 265 kts 190°
2026-04-25 03:40 33.87004 -118.54035 4695 ft 267 kts 167°
2026-04-25 03:41 33.85227 -118.53425 5300 ft 271 kts 163°
2026-04-25 03:41 33.83548 -118.52334 5814 ft 278 kts 135°
2026-04-25 03:41 33.82609 -118.50340 6385 ft 283 kts 101°
2026-04-25 03:41 33.82708 -118.47990 6939 ft 286 kts 68°
2026-04-25 03:42 33.83834 -118.46039 7451 ft 288 kts 35°
2026-04-25 03:42 33.85639 -118.45088 7959 ft 287 kts
2026-04-25 03:42 33.87608 -118.45242 8484 ft 284 kts 350°
2026-04-25 03:42 33.89593 -118.45054 8862 ft 294 kts 15°
2026-04-25 03:43 33.91558 -118.44301 9345 ft 297 kts 17°
2026-04-25 03:43 33.93353 -118.43042 9787 ft 307 kts 44°
2026-04-25 03:43 33.94643 -118.40987 10226 ft 312 kts 55°
2026-04-25 03:43 33.95890 -118.38744 10404 ft 332 kts 54°
2026-04-25 03:44 33.97225 -118.36372 10580 ft 353 kts 54°
2026-04-25 03:44 33.98647 -118.33856 10762 ft 374 kts 54°
2026-04-25 03:44 34.00152 -118.31196 11044 ft 391 kts 54°
2026-04-25 03:44 34.01705 -118.28451 11520 ft 402 kts 54°
2026-04-25 03:45 34.03300 -118.25636 12151 ft 409 kts 54°
2026-04-25 03:45 34.04898 -118.22816 13067 ft 408 kts 53°
2026-04-25 03:45 34.06513 -118.19965 13752 ft 416 kts 53°
2026-04-25 03:45 34.08163 -118.17050 14293 ft 424 kts 53°
2026-04-25 03:46 34.09836 -118.14093 14940 ft 429 kts 53°
2026-04-25 03:46 34.11519 -118.11113 15599 ft 433 kts 53°
2026-04-25 03:46 34.13227 -118.08086 16251 ft 438 kts 53°
2026-04-25 03:46 34.14933 -118.05063 16831 ft 444 kts 53°
2026-04-25 03:47 34.16684 -118.01957 17446 ft 449 kts 53°
2026-04-25 03:47 34.18456 -117.98810 18050 ft 455 kts 53°
2026-04-25 03:47 34.20242 -117.95630 18585 ft 461 kts 53°
2026-04-25 03:47 34.22055 -117.92405 19122 ft 465 kts 53°
2026-04-25 03:48 34.23876 -117.89161 19712 ft 469 kts 52°
2026-04-25 03:48 34.25711 -117.85888 20259 ft 472 kts 52°
2026-04-25 03:48 34.27566 -117.82576 20798 ft 476 kts 52°
2026-04-25 03:48 34.29427 -117.79249 21321 ft 481 kts 52°
2026-04-25 03:49 34.31311 -117.75877 21836 ft 485 kts 52°
2026-04-25 03:49 34.33209 -117.72480 22333 ft 489 kts 52°
2026-04-25 03:49 34.35121 -117.69062 22797 ft 494 kts 52°
2026-04-25 03:49 34.37085 -117.65632 23286 ft 497 kts 50°
2026-04-25 03:50 34.39113 -117.62231 23721 ft 500 kts 50°
2026-04-25 03:50 34.41173 -117.58829 24140 ft 503 kts 49°
2026-04-25 03:50 34.43231 -117.55435 24549 ft 507 kts 50°
2026-04-25 03:50 34.45319 -117.51974 25017 ft 510 kts 49°
2026-04-25 03:51 34.47412 -117.48484 25429 ft 514 kts 49°
2026-04-25 03:51 34.49518 -117.44957 25834 ft 518 kts 50°
2026-04-25 03:51 34.51632 -117.41400 26230 ft 521 kts 50°
2026-04-25 03:51 34.53757 -117.37818 26620 ft 524 kts 50°
2026-04-25 03:52 34.55889 -117.34217 26994 ft 528 kts 50°
2026-04-25 03:52 34.58037 -117.30587 27363 ft 531 kts 50°
2026-04-25 03:52 34.60194 -117.26940 27724 ft 534 kts 50°
2026-04-25 03:52 34.62365 -117.23267 28060 ft 537 kts 50°
2026-04-25 03:53 34.64547 -117.19572 28387 ft 540 kts 50°
2026-04-25 03:53 34.66739 -117.15856 28625 ft 543 kts 50°
2026-04-25 03:53 34.68947 -117.12108 28912 ft 546 kts 50°
2026-04-25 03:53 34.71165 -117.08341 29208 ft 549 kts 50°
2026-04-25 03:54 34.73390 -117.04556 29543 ft 551 kts 51°
2026-04-25 03:54 34.75614 -117.00769 29942 ft 550 kts 51°
2026-04-25 03:54 34.77810 -116.97024 30299 ft 549 kts 51°
2026-04-25 03:54 34.80029 -116.93236 30617 ft 550 kts 51°
2026-04-25 03:55 34.82283 -116.89388 30863 ft 552 kts 51°
2026-04-25 03:55 34.84516 -116.85570 31107 ft 555 kts 50°
2026-04-25 03:55 34.86758 -116.81734 31296 ft 558 kts 50°
2026-04-25 03:55 34.89008 -116.77878 31593 ft 558 kts 50°
2026-04-25 03:56 34.91233 -116.74080 31915 ft 556 kts 49°
2026-04-25 03:56 34.93634 -116.70413 32182 ft 552 kts 43°
2026-04-25 03:56 34.96230 -116.66967 32426 ft 552 kts 41°
2026-04-25 03:56 34.98864 -116.63560 32679 ft 552 kts 40°
2026-04-25 03:57 35.01516 -116.60147 32784 ft 556 kts 40°
2026-04-25 03:57 35.04175 -116.56706 32827 ft 557 kts 41°
2026-04-25 03:57 35.09442 -116.49800 32793 ft 554 kts 41°
2026-04-25 03:58 35.14652 -116.42896 32779 ft 551 kts 41°
2026-04-25 03:58 35.19846 -116.35996 32807 ft 551 kts 41°
2026-04-25 03:59 35.25041 -116.29094 32791 ft 552 kts 41°
2026-04-25 03:59 35.30246 -116.22165 32789 ft 554 kts 41°
2026-04-25 04:00 35.35471 -116.15194 32773 ft 556 kts 41°
2026-04-25 04:00 35.40698 -116.08207 32793 ft 557 kts 41°
2026-04-25 04:01 35.45896 -116.01241 32787 ft 558 kts 41°
2026-04-25 04:01 35.51131 -115.94212 32784 ft 558 kts 41°
2026-04-25 04:02 35.56352 -115.87186 32803 ft 556 kts 41°
2026-04-25 04:02 35.61561 -115.80163 32797 ft 554 kts 41°
2026-04-25 04:03 35.66728 -115.73146 32813 ft 553 kts 41°
2026-04-25 04:03 35.71851 -115.66090 32802 ft 552 kts 42°
2026-04-25 04:04 35.76962 -115.59028 32815 ft 551 kts 42°
2026-04-25 04:04 35.82071 -115.51970 32837 ft 552 kts 42°
2026-04-25 04:05 35.86324 -115.46089 32806 ft 553 kts 42°
2026-04-25 04:05 35.91441 -115.38998 32820 ft 553 kts 42°
2026-04-25 04:06 35.96552 -115.31898 32818 ft 552 kts 42°
2026-04-25 04:06 36.01650 -115.24802 32792 ft 552 kts 42°
2026-04-25 04:07 36.06750 -115.17687 32793 ft 552 kts 42°
2026-04-25 04:07 36.11480 -115.10229 32799 ft 556 kts 49°
2026-04-25 04:08 36.16017 -115.02385 32734 ft 557 kts 49°
2026-04-25 04:08 36.20491 -114.94623 32728 ft 558 kts 49°
2026-04-25 04:09 36.25026 -114.86816 32729 ft 557 kts 49°
2026-04-25 04:09 36.29553 -114.79044 32703 ft 556 kts 49°
2026-04-25 04:10 36.34074 -114.71268 32687 ft 555 kts 49°
2026-04-25 04:10 36.38583 -114.63486 32653 ft 555 kts 49°
2026-04-25 04:11 36.45323 -114.51819 32645 ft 554 kts 49°
2026-04-25 04:12 36.49800 -114.44045 32655 ft 553 kts 49°
2026-04-25 04:12 36.54273 -114.36261 32724 ft 553 kts 49°
2026-04-25 04:13 36.58714 -114.28517 32674 ft 553 kts 49°